Tracking 23940 objects as of 2-Dec-2021
HD Live streaming from Space Station
objects crossing your sky now

STARLINK-3131

Track STARLINK-3131 now!
10-day predictions
STARLINK-3131 is classified as:


NORAD ID: 49427
Int'l Code: 2021-104V
Perigee: 355.6 km
Apogee: 357.9 km
Inclination: 53.2 °
Period: 91.5 minutes
Semi major axis: 6727 km
RCS: Unknown
Launch date: November 13, 2021
Source: United States (US)
Launch site: AIR FORCE EASTERN TEST RANGE (AFETR)
aabbcc
Your satellite tracking list
Your tracking list is empty




NASA's NSSDC Master Catalog

Two Line Element Set (TLE):
1 49427U 21104V   21336.25001157 -.00031416  00000-0 -21970-3 0  9999
2 49427  53.2185  40.3943 0001680  32.5245 129.9073 15.73257458  4249
Source of the keplerian elements: AFSPC